COSMOS 1833

Last updated on Sun Aug 09 2026 00:02:09 GMT+0000 (Coordinated Universal Time)

1 17589U 87027A 26220.63375765 -.00000174 00000+0 -67002-4 0 9990 2 17589 70.9227 6.6336 0026097 331.0386 28.9285 14.13066183 31787
UTC large
Height (km)
Speed (km/s)
/
Latitude / Longitude
Inclination (degrees)
Orbital Period (minutes)
Azimuth
Elevation
Range (km)
Doppler Factor

Next 0 passes for location: London (51.5072 / 0.1276)

No passes found over London.
COSMOS 1833